Weather History for Albertville, AL

Change the Weather History Date:

Friday, July 5, 2013

  Actual Average (KGAD) Record (KGAD)
Temperature  
Mean Temperature 70 °F -  
Max Temperature 73 °F 86 °F 100 °F (1930)
Min Temperature 68 °F 66 °F 58 °F (1930)
Cooling Degree Days 6    
Growing Degree Days 20 (Base 50)    
Moisture  
Dew Point 71 °F    
Average Humidity 100    
Maximum Humidity 100    
Minimum Humidity 100    
Precipitation  
Precipitation 0.50 in - - ()
Sea Level Pressure  
Sea Level Pressure 30.12 in    
Wind  
Wind Speed 6 mph (SE)    
Max Wind Speed 12 mph    
Max Gust Speed 18 mph    
Visibility 9 miles    
Events Rain    
Averages and records for this station are not official NWS values.
T = Trace of Precipitation, MM = Missing Value Source: NWS Daily Summary

Daily Weather History Graph

Daily Weather History Graph

Search for Another Location

Airport:

Trip Planner

Search our weather history database for the weather conditions in past years. The results will help you decide how hot, cold, wet, or windy it might be!

Date:

Astronomy

Jul. 05, 2013 Rise Set
Actual Time 5:38 AM CDT 8:00 PM CDT
Civil Twilight 5:09 AM CDT 8:29 PM CDT
Nautical Twilight 4:33 AM CDT 9:05 PM CDT
Astronomical Twilight 3:54 AM CDT 9:44 PM CDT
Moon 3:35 AM CDT (7/5) 5:57 PM CDT (7/5)
Length of Visible Light 15h 19m
Length of Day
14h 21m
Waning Crescent, 6% of the Moon is Illuminated
Jul 5
Waning Crescent
Jul 8
New
Jul 15
First Quarter
Jul 22
Full
Jul 29
Last Quarter

Hourly Weather History & Observations

Time (CDT) Temp. Dew Point Humidity Pressure Visibility Wind Dir Wind Speed Gust Speed Precip Events Conditions
12:15 AM 69.8 °F 69.8 °F 100% 30.10 in 10.0 mi SE 9.2 mph - N/A   Overcast
12:35 AM 69.8 °F 69.8 °F 100% 30.10 in 10.0 mi SSE 8.1 mph - N/A   Overcast
12:55 AM 69.8 °F 69.8 °F 100% 30.09 in 10.0 mi SSE 6.9 mph - N/A   Overcast
1:15 AM 69.8 °F 69.8 °F 100% 30.09 in 10.0 mi SSE 6.9 mph - N/A   Mostly Cloudy
1:35 AM 68.0 °F 68.0 °F 100% 30.09 in 10.0 mi SE 3.5 mph - N/A   Scattered Clouds
1:55 AM 69.8 °F 69.8 °F 100% 30.09 in 10.0 mi SSE 5.8 mph - N/A   Mostly Cloudy
2:15 AM 69.8 °F 69.8 °F 100% 30.08 in 10.0 mi SE 3.5 mph - N/A   Overcast
2:35 AM 69.8 °F 69.8 °F 100% 30.09 in 10.0 mi SSE 4.6 mph - N/A   Overcast
2:55 AM 69.8 °F 69.8 °F 100% 30.09 in 10.0 mi SSE 6.9 mph - N/A   Overcast
3:15 AM 69.8 °F 69.8 °F 100% 30.08 in 10.0 mi SSE 8.1 mph - N/A Rain Light Rain
3:35 AM 69.8 °F 69.8 °F 100% 30.09 in 7.0 mi SSE 4.6 mph - N/A   Overcast
3:55 AM 69.8 °F 69.8 °F 100% 30.08 in 7.0 mi SSE 5.8 mph - N/A   Overcast
4:15 AM 69.8 °F - N/A% 30.09 in 5.0 mi SSE 5.8 mph - N/A   Light Drizzle
4:35 AM 69.8 °F - N/A% 30.10 in 4.0 mi SSE 3.5 mph - N/A Rain Light Rain
4:55 AM 69.8 °F - N/A% 30.10 in 10.0 mi SSE 3.5 mph - N/A   Overcast
5:15 AM 69.8 °F - N/A% 30.10 in 10.0 mi SSE 4.6 mph - N/A   Overcast
5:35 AM 69.8 °F - N/A% 30.10 in 7.0 mi SSE 5.8 mph - N/A Rain Light Rain
5:55 AM 69.8 °F - N/A% 30.11 in 10.0 mi SSE 4.6 mph - N/A   Overcast
6:15 AM 69.8 °F - N/A% 30.12 in 7.0 mi SSE 4.6 mph - N/A Rain Light Rain
6:35 AM 69.8 °F - N/A% 30.12 in 10.0 mi SSE 4.6 mph - N/A   Overcast
6:55 AM 69.8 °F - N/A% 30.12 in 10.0 mi SE 6.9 mph - N/A   Overcast
7:15 AM 69.8 °F - N/A% 30.12 in 10.0 mi SE 6.9 mph - N/A   Overcast
7:35 AM 69.8 °F 69.8 °F 100% 30.12 in 10.0 mi SE 6.9 mph - N/A   Overcast
7:55 AM 69.8 °F 69.8 °F 100% 30.13 in 10.0 mi SSE 11.5 mph - N/A   Overcast
8:15 AM 69.8 °F 69.8 °F 100% 30.14 in 10.0 mi SSE 6.9 mph - N/A   Overcast
8:35 AM 71.6 °F 71.6 °F 100% 30.15 in 10.0 mi SE 5.8 mph - N/A   Overcast
8:55 AM 71.6 °F 71.6 °F 100% 30.14 in 10.0 mi SE 5.8 mph - N/A   Overcast
9:15 AM 71.6 °F 71.6 °F 100% 30.14 in 10.0 mi SE 5.8 mph 18.4 mph N/A   Overcast
9:35 AM 73.4 °F 73.4 °F 100% 30.14 in 10.0 mi SE 5.8 mph - N/A   Overcast
9:55 AM 71.6 °F 71.6 °F 100% 30.15 in 10.0 mi SE 9.2 mph - N/A   Overcast
10:15 AM 71.6 °F 71.6 °F 100% 30.15 in 10.0 mi SE 6.9 mph - N/A   Overcast
10:35 AM 71.6 °F 71.6 °F 100% 30.16 in 10.0 mi SSE 8.1 mph - N/A   Overcast
10:55 AM 71.6 °F 71.6 °F 100% 30.16 in 10.0 mi SSE 5.8 mph - N/A   Overcast
11:15 AM 71.6 °F 71.6 °F 100% 30.17 in 7.0 mi SSE 6.9 mph - N/A Rain Light Rain
11:35 AM 71.6 °F 71.6 °F 100% 30.16 in 10.0 mi SSE 4.6 mph - 0.01 in Rain Light Rain
11:55 AM 71.6 °F 71.6 °F 100% 30.16 in 7.0 mi SSE 5.8 mph - 0.02 in Rain Light Rain
12:15 PM 71.6 °F 71.6 °F 100% 30.16 in 10.0 mi SSE 9.2 mph - N/A   Overcast
12:35 PM 71.6 °F 71.6 °F 100% 30.16 in 10.0 mi SSE 9.2 mph - N/A Rain Rain
12:55 PM 71.6 °F 71.6 °F 100% 30.16 in 3.0 mi SSE 9.2 mph 17.3 mph 0.04 in Rain Heavy Rain
1:15 PM 69.8 °F - N/A% 30.15 in 1.2 mi SE 9.2 mph 18.4 mph 0.20 in Rain Heavy Rain
1:35 PM 69.8 °F - N/A% 30.15 in 7.0 mi SE 6.9 mph 16.1 mph 0.33 in Rain Light Rain
1:55 PM 71.6 °F 71.6 °F 100% 30.15 in 10.0 mi SSE 6.9 mph - 0.33 in   Overcast
2:15 PM 71.6 °F 71.6 °F 100% 30.15 in 10.0 mi SSE 9.2 mph - N/A   Overcast
2:35 PM 71.6 °F 71.6 °F 100% 30.14 in 10.0 mi SSE 5.8 mph - N/A   Overcast
2:55 PM 71.6 °F 71.6 °F 100% 30.14 in 7.0 mi SSE 4.6 mph - N/A Rain Rain
3:15 PM 71.6 °F 71.6 °F 100% 30.13 in 10.0 mi SE 4.6 mph - N/A   Light Drizzle
3:35 PM 71.6 °F 71.6 °F 100% 30.12 in 10.0 mi SE 3.5 mph - N/A Rain Light Rain
3:55 PM 71.6 °F 71.6 °F 100% 30.12 in 10.0 mi SE 4.6 mph - N/A   Overcast
4:15 PM 71.6 °F 71.6 °F 100% 30.11 in 7.0 mi SE 5.8 mph - N/A Rain Rain
4:35 PM 71.6 °F 71.6 °F 100% 30.11 in 10.0 mi SE 3.5 mph - 0.01 in   Mostly Cloudy
4:55 PM 71.6 °F 71.6 °F 100% 30.11 in 10.0 mi SE 5.8 mph - 0.01 in Rain Light Rain
5:15 PM 71.6 °F 71.6 °F 100% 30.11 in 10.0 mi SE 4.6 mph - N/A   Light Drizzle
5:35 PM 71.6 °F 71.6 °F 100% 30.11 in 10.0 mi Calm Calm - N/A   Light Drizzle
5:55 PM 71.6 °F 71.6 °F 100% 30.12 in 10.0 mi ESE 4.6 mph - N/A   Mostly Cloudy
6:15 PM 71.6 °F 71.6 °F 100% 30.12 in 10.0 mi ESE 4.6 mph - N/A   Light Drizzle
6:35 PM 71.6 °F 71.6 °F 100% 30.12 in 10.0 mi ESE 3.5 mph - N/A   Light Drizzle
6:55 PM 71.6 °F 71.6 °F 100% 30.11 in 10.0 mi East 3.5 mph - N/A   Scattered Clouds
7:15 PM 71.6 °F 71.6 °F 100% 30.12 in 10.0 mi ESE 4.6 mph - N/A   Scattered Clouds
7:35 PM 71.6 °F 71.6 °F 100% 30.12 in 10.0 mi East 4.6 mph - N/A Rain Light Rain
7:55 PM 71.6 °F 71.6 °F 100% 30.12 in 10.0 mi ESE 5.8 mph - N/A Rain Light Rain
8:15 PM 71.6 °F 71.6 °F 100% 30.12 in 10.0 mi Calm Calm - N/A   Light Drizzle
8:35 PM 71.6 °F 71.6 °F 100% 30.12 in 10.0 mi SE 4.6 mph - N/A   Mostly Cloudy
8:55 PM 71.6 °F 71.6 °F 100% 30.12 in 7.0 mi SE 4.6 mph - N/A Rain Rain
9:15 PM 71.6 °F - N/A% 30.12 in 10.0 mi SE 3.5 mph - N/A   Light Drizzle
9:35 PM 69.8 °F - N/A% 30.12 in 10.0 mi ESE 3.5 mph - N/A Rain Light Rain
9:55 PM 69.8 °F - N/A% 30.13 in 4.0 mi SSE 5.8 mph - 0.02 in Rain Rain
10:15 PM 69.8 °F - N/A% 30.12 in 5.0 mi South 3.5 mph - 0.07 in Rain Light Rain
10:35 PM 69.8 °F - N/A% 30.12 in 10.0 mi South 3.5 mph - 0.07 in Rain Light Rain
10:55 PM 69.8 °F - N/A% 30.12 in 10.0 mi South 3.5 mph - 0.08 in   Mostly Cloudy
11:15 PM 69.8 °F - N/A% 30.12 in 10.0 mi Calm Calm - N/A   Scattered Clouds
11:35 PM 69.8 °F - N/A% 30.12 in 10.0 mi Calm Calm - N/A   Light Drizzle
11:55 PM 69.8 °F - N/A% 30.12 in 7.0 mi Calm Calm - N/A   Light Drizzle